Other Public Products
Issued by NWS Charleston, SC

Current Version | Previous Version | Text Only | Print | Product List | Glossary Off
Versions: 1 2 3 4 5 6 7 8 9 10 11 12 13 14 15 16 17 18 19 20 21 22 23 24 25 26 27 28 29 30 31 32 33 34 35 36 37 38 39 40 41 42 43 44 45 46 47 48 49 50

697
FPUS82 KCHS 230927
OPUCHS

TEST...KCHS/KSAV Gateway Observations...TEST
National Weather Service Charleston SC
500 AM EDT SUN JUL 23 2017

NOTE: "fair" indicates few or no clouds below 12,000 feet with no
significant weather and/or obstructions to visibility.

SCZ050-WAZ558-NCZ071-TXZ119-213-PAZ071-DCZ001-FLZ074-172-MI076-
NYZ176-178-MAZ016-IL014-TNZ027-NJZ106-GAZ044-MD014-231000-

...Gateway Observations for Charleston International...

CITY           SKY/WX    TMP DP  RH WIND       PRES   REMARKS
Chas Airport   CLEAR     78  74  87 SW6       29.93S
Seattle        MOCLDY    65  58  78 NE10      30.09F
Charlotte      PTCLDY    79  72  79 SW6       29.89S
Dallas DFW     PTCLDY    83  73  72 S12       29.85F
Dallas Love    PTCLDY    83  72  69 S10       29.86F
Philladelphia  CLOUDY    78  72  81 W12       29.75R
Wash National  MOCLDY    75  74  96 CALM      29.78R
Baltimore      PTCLDY    73  73 100 CALM      29.76S
Miami          MOCLDY    84  75  74 SE6       30.01F HX  92
Detroit        CLOUDY    71  67  87 NW5       29.77F
Newark         CLOUDY    70  69  97 CALM      29.75R
Laguardia      LGT RAIN  73  71  93 CALM      29.74R
J F K          CLOUDY    72  71  97 CALM      29.75R
Boston Logan   CLOUDY    70  54  56 NE23G32   29.77R
Ft. Lauderdale MOCLDY    82  76  81 SE5       30.00F
Chicago O`Hare PTCLDY    74  69  85 CALM      29.78F
Chicago Midway PTCLDY    75  70  84 NW3       29.78F
Houston Bush   PTCLDY    79  75  87 S5        29.91F
Houston Hobby  CLOUDY    81  75  82 CALM      29.91F
Nashville      CLEAR     80  71  74 SW3       29.90R
Atlanta        PTCLDY    75  73  93 W6        29.96S

$$

GAZ044-118-TXZ119-213-NCZ071-DCZ001-MDZ014-506-PAZ021-071-NJZ106-
NYZ176-178-MAZ106-OHZ011-021-055-MIZ076-KYZ091-ILZ014-INZ047-
MNZ060-ONZ431-231000-

...Gateway Observations for Savannah International...

CITY           SKY/WX    TMP DP  RH WIND       PRES   REMARKS
Savannah Arpt  CLEAR    N/A N/A N/A SW7       29.96S
Atlanta        PTCLDY    75  73  93 W6        29.96S
Charlotte      PTCLDY    79  72  79 SW6       29.89S
Dallas DFW     PTCLDY    83  73  72 S12       29.85F
Houston Bush   PTCLDY    79  75  87 S5        29.91F
Wash National  MOCLDY    75  74  96 CALM      29.78R
Wash Dulles    PTCLDY    73  71  93 CALM      29.78R
Baltimore      PTCLDY    73  73 100 CALM      29.76S
Philadelphia   CLOUDY    78  72  81 W12       29.75R
Newark         CLOUDY    70  69  97 CALM      29.75R
Laguardia      LGT RAIN  73  71  93 CALM      29.74R
J F K          CLOUDY    72  71  97 CALM      29.75R
Boston         CLOUDY    70  54  56 NE23G32   29.77R
Pittsburg      CLOUDY    73  72  96 SW6       29.80R
Akron          CLOUDY    73  69  87 W3        29.80S
Cleveland      CLOUDY    75  71  87 SW7       29.78S
Cincinnati     TSTM      73  73 100 W12G21    29.86R
Columbus       CLOUDY    72  72 100 SW5       29.78S
Detroit        CLOUDY    71  67  87 NW5       29.77F
Chicago O`Hare PTCLDY    74  69  85 CALM      29.78F
Minneapolis    MOCLDY    73  55  53 N6        29.83S
Indianapolis   CLOUDY    72  69  90 SW6       29.80R
Toronto Canada MOCLDY    68  66  94 NE6       29.76F

$$




USA.gov is the U.S. government's official web portal to all federal, state and local government web resources and services.